Location: Roanoke
(37.2710°N, 79.9420°W)
Time: 05:56:44
(UTC-05:00)

Cosmos 1441 Rocket - Visible Passes

Search period start: 01 March 2015 00:00
Search period end: 11 March 2015 01:00
Orbit: 506 x 551 km, 81.1° (Epoch: 28 February)

Date Brightness Start Highest point End Pass type
(mag) Time Alt. Az. Time Alt. Az. Time Alt. Az.
01 Mar 6.1 04:05:20 10° NNE 04:07:53 17° ENE 04:10:33 10° ESE visible
01 Mar 4.1 05:40:41 10° NNW 05:44:08 28° W 05:47:29 10° SSW visible
02 Mar 6.4 03:59:16 10° ESE 03:59:16 10° ESE 03:59:21 10° ESE visible
02 Mar 4.7 05:34:51 21° SW 05:34:51 21° SW 05:36:32 10° SSW visible
